Manteo, NC

12:23 PM EDT on March 26, 2017 (GMT -0400)
Dare County Regional

Weather History for KMQI - October, 2011

Change the Weather History Date:

Wednesday, October 19, 2011

  Actual Average Record
Temperature  
Mean Temperature 72 °F -  
Max Temperature 75 °F 68 °F 84 °F (2007)
Min Temperature 69 °F 56 °F 32 °F (2001)
Cooling Degree Days 7    
Growing Degree Days 22 (Base 50)    
Moisture  
Dew Point 68 °F    
Average Humidity 89    
Maximum Humidity 94    
Minimum Humidity 83    
Precipitation  
Precipitation 0.00 in - - ()
Sea Level Pressure  
Sea Level Pressure 29.49 in    
Wind  
Wind Speed 13 mph (South)    
Max Wind Speed 26 mph    
Max Gust Speed 37 mph    
Visibility 6 miles    
Events Rain    
Averages and records for this station are not official NWS values.
T = Trace of Precipitation, MM = Missing Value Source: NWS Daily Summary

Daily Weather History Graph

Daily Weather History Graph

Search for Another Location

Airport or City:

Trip Planner

Search our weather history database for the weather conditions in past years. The results will help you decide how hot, cold, wet, or windy it might be!

Date:

Astronomy

Oct. 19, 2011 Rise Set
Actual Time 7:12 AM EDT 6:22 PM EDT
Civil Twilight 6:46 AM EDT 6:48 PM EDT
Nautical Twilight 6:17 AM EDT 7:17 PM EDT
Astronomical Twilight 5:47 AM EDT 7:47 PM EDT
Moon No Moon Rise 1:37 PM EDT (10/19)
Length of Visible Light 12h 01m
Length of Day
11h 09m
Waning Gibbous, 55% of the Moon is Illuminated
Oct 19
Waning Gibbous
Oct 19
Last Quarter
Oct 26
New
Nov 2
First Quarter
Nov 10
Full

Hourly Weather History & Observations

Time (EDT) Temp. Dew Point Humidity Pressure Visibility Wind Dir Wind Speed Gust Speed Precip Events Conditions
12:15 AM 69.8 °F 66.2 °F 88% 29.71 in 10.0 mi ESE 8.1 mph - N/A Rain Light Rain
12:35 AM 69.8 °F 66.2 °F 88% 29.69 in 5.0 mi ESE 12.7 mph 16.1 mph N/A Rain Light Rain
12:55 AM 69.8 °F 66.2 °F 88% 29.67 in 5.0 mi SE 10.4 mph 18.4 mph N/A Rain Light Rain
1:15 AM 69.8 °F 66.2 °F 88% 29.65 in 5.0 mi ESE 10.4 mph - N/A Rain Light Rain
1:35 AM 69.8 °F 66.2 °F 88% 29.63 in 4.0 mi ESE 9.2 mph - N/A Rain Light Rain
1:55 AM 69.8 °F 68.0 °F 94% 29.62 in 5.0 mi East 10.4 mph - N/A Rain Light Rain
2:15 AM 69.8 °F 68.0 °F 94% 29.60 in 7.0 mi ESE 8.1 mph - N/A Rain Rain
2:35 AM 71.6 °F 69.8 °F 94% 29.58 in 5.0 mi SSE 13.8 mph - N/A Rain Rain
2:55 AM 71.6 °F 68.0 °F 88% 29.58 in 3.0 mi SW 16.1 mph 36.8 mph N/A Rain Light Rain
3:15 AM 71.6 °F 68.0 °F 88% 29.57 in 10.0 mi SSW 12.7 mph - N/A   Overcast
3:35 AM 71.6 °F 68.0 °F 88% 29.57 in 10.0 mi SSW 11.5 mph - N/A   Overcast
3:55 AM 73.4 °F 69.8 °F 88% 29.55 in 10.0 mi SSW 16.1 mph - N/A   Overcast
4:15 AM 71.6 °F 68.0 °F 88% 29.55 in 10.0 mi SSW 13.8 mph - N/A Rain Light Rain
4:55 AM 71.6 °F 68.0 °F 88% 29.53 in 10.0 mi SSW 15.0 mph - N/A   Overcast
5:15 AM 71.6 °F 68.0 °F 88% 29.53 in 3.0 mi SSW 9.2 mph - N/A Rain Light Rain
5:35 AM 71.6 °F 68.0 °F 88% 29.53 in 10.0 mi South 9.2 mph - N/A   Scattered Clouds
5:55 AM 71.6 °F 68.0 °F 88% 29.54 in 10.0 mi South 11.5 mph - N/A   Scattered Clouds
6:15 AM 71.6 °F 68.0 °F 88% 29.53 in 10.0 mi South 15.0 mph - N/A   Scattered Clouds
6:35 AM 71.6 °F 68.0 °F 88% 29.54 in 7.0 mi South 12.7 mph - N/A Rain Light Rain
6:55 AM 71.6 °F 68.0 °F 88% 29.53 in 7.0 mi SSW 11.5 mph - N/A   Drizzle
7:15 AM 71.6 °F 68.0 °F 88% 29.54 in 10.0 mi SSW 12.7 mph - N/A Rain Light Rain
7:35 AM 71.6 °F 68.0 °F 88% 29.53 in 10.0 mi South 12.7 mph - N/A   Overcast
7:55 AM 71.6 °F 68.0 °F 88% 29.53 in 10.0 mi South 11.5 mph - N/A   Overcast
8:15 AM 71.6 °F 68.0 °F 88% 29.53 in 7.0 mi South 12.7 mph - N/A   Mostly Cloudy
8:35 AM 71.6 °F 68.0 °F 88% 29.54 in 7.0 mi South 12.7 mph - N/A   Scattered Clouds
8:55 AM 71.6 °F 68.0 °F 88% 29.54 in 7.0 mi South 9.2 mph - N/A   Scattered Clouds
9:15 AM 71.6 °F 68.0 °F 88% 29.55 in 5.0 mi South 10.4 mph - N/A Rain Rain
9:55 AM 69.8 °F 68.0 °F 94% 29.52 in 3.0 mi SSE 10.4 mph - N/A Rain Light Rain
10:15 AM 69.8 °F 68.0 °F 94% 29.52 in 3.0 mi South 11.5 mph - N/A Rain Light Rain
10:35 AM 69.8 °F 68.0 °F 94% 29.50 in 2.5 mi South 11.5 mph - N/A Rain Rain
10:55 AM 69.8 °F 68.0 °F 94% 29.49 in 5.0 mi South 9.2 mph - N/A Rain Light Rain
11:15 AM 69.8 °F 66.2 °F 88% 29.49 in 5.0 mi SSE 9.2 mph - N/A Rain Rain
11:35 AM 69.8 °F 68.0 °F 94% 29.51 in 4.0 mi SSE 11.5 mph 17.3 mph N/A Rain Light Rain
11:55 AM 69.8 °F 68.0 °F 94% 29.48 in 2.0 mi SSE 10.4 mph - N/A Rain Light Rain
12:15 PM 69.8 °F 68.0 °F 94% 29.48 in 4.0 mi SSE 9.2 mph - N/A   Drizzle
12:35 PM 69.8 °F 68.0 °F 94% 29.46 in 7.0 mi SE 10.4 mph - N/A   Light Drizzle
12:55 PM 69.8 °F 68.0 °F 94% 29.45 in 4.0 mi ESE 10.4 mph 18.4 mph N/A Rain Rain
1:15 PM 69.8 °F 66.2 °F 88% 29.43 in 5.0 mi ESE 11.5 mph - N/A   Light Drizzle
1:35 PM 69.8 °F 66.2 °F 88% 29.44 in 7.0 mi SSE 10.4 mph 16.1 mph N/A   Light Drizzle
1:55 PM 73.4 °F 68.0 °F 83% 29.41 in 7.0 mi SSW 16.1 mph 23.0 mph N/A   Mostly Cloudy
2:15 PM 73.4 °F 69.8 °F 88% 29.39 in 4.0 mi South 16.1 mph 27.6 mph N/A Rain Light Rain
2:35 PM 73.4 °F 69.8 °F 88% 29.38 in 2.5 mi South 20.7 mph 27.6 mph N/A Rain Light Rain
2:55 PM 73.4 °F 69.8 °F 88% 29.38 in 3.0 mi South 26.5 mph 32.2 mph N/A Rain Light Rain
3:15 PM 71.6 °F 69.8 °F 94% 29.38 in 3.0 mi South 23.0 mph 31.1 mph N/A Rain Rain
3:35 PM 71.6 °F 69.8 °F 94% 29.38 in 1.2 mi South 12.7 mph - N/A Rain Rain
3:55 PM 71.6 °F 69.8 °F 94% 29.36 in 5.0 mi South 8.1 mph - N/A   Overcast
4:15 PM 73.4 °F 69.8 °F 88% 29.36 in 2.5 mi South 15.0 mph 26.5 mph N/A Rain Rain
4:35 PM 73.4 °F 69.8 °F 88% 29.35 in 4.0 mi SSW 18.4 mph - N/A   Mostly Cloudy
4:55 PM 73.4 °F 69.8 °F 88% 29.34 in 7.0 mi SSW 24.2 mph 28.8 mph N/A   Scattered Clouds
5:15 PM 73.4 °F 69.8 °F 88% 29.33 in 7.0 mi SSW 20.7 mph - N/A   Scattered Clouds
5:35 PM 75.2 °F 69.8 °F 83% 29.34 in 10.0 mi SSW 25.3 mph - N/A   Clear
5:55 PM 73.4 °F 69.8 °F 88% 29.36 in 10.0 mi SSW 21.9 mph - N/A   Scattered Clouds
6:15 PM 73.4 °F 69.8 °F 88% 29.36 in 10.0 mi SSW 20.7 mph - N/A   Scattered Clouds
6:35 PM 73.4 °F 69.8 °F 88% 29.37 in 10.0 mi SSW 20.7 mph - N/A   Clear
6:55 PM 73.4 °F 68.0 °F 83% 29.39 in 10.0 mi South 15.0 mph 20.7 mph N/A   Clear
7:15 PM 73.4 °F 68.0 °F 83% 29.40 in 10.0 mi SSW 23.0 mph - N/A   Clear
7:35 PM 73.4 °F 68.0 °F 83% 29.40 in 10.0 mi SSW 23.0 mph - N/A   Clear
7:55 PM 73.4 °F 69.8 °F 88% 29.41 in 10.0 mi South 20.7 mph - N/A   Mostly Cloudy
8:15 PM 73.4 °F 69.8 °F 88% 29.41 in 10.0 mi SSW 20.7 mph - N/A   Mostly Cloudy
8:35 PM 73.4 °F 69.8 °F 88% 29.42 in 10.0 mi SSW 26.5 mph 34.5 mph N/A   Overcast
8:55 PM 73.4 °F 69.8 °F 88% 29.42 in 10.0 mi SSW 26.5 mph 33.4 mph N/A   Mostly Cloudy
9:15 PM 73.4 °F 68.0 °F 83% 29.43 in 10.0 mi SSW 25.3 mph 34.5 mph N/A   Scattered Clouds
9:35 PM 73.4 °F 68.0 °F 83% 29.42 in 10.0 mi SSW 23.0 mph 31.1 mph N/A   Clear
9:55 PM 73.4 °F 68.0 °F 83% 29.42 in 10.0 mi SSW 24.2 mph 31.1 mph N/A   Clear
10:15 PM 73.4 °F 68.0 °F 83% 29.43 in 10.0 mi SSW 20.7 mph 28.8 mph N/A   Clear
10:35 PM 73.4 °F 68.0 °F 83% 29.43 in 10.0 mi SSW 23.0 mph - N/A   Scattered Clouds
10:55 PM 73.4 °F 68.0 °F 83% 29.44 in 10.0 mi SSW 23.0 mph 26.5 mph N/A   Overcast
11:15 PM 73.4 °F 66.2 °F 78% 29.44 in 10.0 mi SW 23.0 mph 31.1 mph N/A   Overcast
11:35 PM 71.6 °F 66.2 °F 83% 29.45 in 5.0 mi SSW 27.6 mph 33.4 mph N/A Rain Light Rain
11:55 PM 69.8 °F 64.4 °F 83% 29.44 in 10.0 mi SSW 20.7 mph - N/A   Light Drizzle